www.pogodaiklimat.ru

Погода и климат >> Архив погоды >> Парагвай >> Puerto Casado


ПОГОДА в Puerto Casado

  • Прогноз погоды в Puerto Casado
  • Монитор погоды в Puerto Casado
  • Климат города

АРХИВ ПОГОДЫ в Puerto Casado

Время (UTC), дата Ветер
(напр.,м/с)
 
Видим.   Явления Облачность Т
(С)
Тd
(С)
f
(%)
Тe
(С)
Тes
(С)
Комфортность P
(гПа)
Po
(гПа)
Тmin
(С)
Tmax
(С)
R
(мм)
R24
(мм)
S
(см)
09 11.08 штиль 0 20 км ясно +13.0 +7.4 69 +13 +13 1019.2 1009.8
12 11.08 штиль 0 20 км ясно +11.8 +8.3 79 +11 +16 1020.2 1010.7 +9.0
15 11.08 ЮВ 2 20 км ясно +23.0 +8.2 39 +24 +38 комфорт 1020.6 1011.5
18 11.08 штиль 0 20 км ясно +28.6 +6.8 25 +28 +41 жарко 1017.3 1008.4
00 12.08 штиль 0 20 км ясно +21.4 +11.7 54 +23 +23 комфорт 1017.5 1008.3 +29.5
03 12.08 штиль 0 20 км ясно +20.0 +12.6 62 +22 +22 комфорт 1017.9 1008.7
06 12.08 штиль 0 20 км ясно +18.8 +12.1 65 +19 +19 1018.4 1009.2
09 12.08 штиль 0 20 км ясно +17.6 +12.8 73 +18 +18 1019.1 1009.8
12 12.08 штиль 0 20 км ясно +14.8 +11.2 79 +15 +19 1016.6 1007.2 +11.8
15 12.08 штиль 0 20 км ясно +28.2 +7.8 28 +28 +46 жарко 1016.5 1007.6
18 12.08 штиль 0 20 км ясно +33.6 +4.9 17 +31 +45 жарко 1013.7 1004.9
00 13.08 штиль 0 20 км ясно +24.0 +15.4 59 +27 +27 жарко 1014.2 1005.1 +34.6
09 13.08 штиль 0 20 км ясно +21.6 +11.5 53 +24 +24 комфорт 1014.0 1004.9
12 13.08 С 3 20 км ясно +22.8 +5.4 32 +23 +26 комфорт 1013.2 1004.1 +14.5
15 13.08 С 4 20 км ясно +30.0 +8.2 26 +29 +38 жарко 1013.8 1004.9
18 13.08 С 4 20 км ясно +33.8 +12.2 27 +34 +41 очень
жарко
1009.2 1000.4
21 13.08 С 1 20 км ясно +33.0 +15.3 35 +35 +36 душно 1009.0 1000.2
00 14.08 штиль 0 20 км ясно +26.6 +11.9 40 +28 +28 жарко 1010.8 1001.9 +35.0
03 14.08 штиль 0 20 км ясно +25.8 +12.3 43 +27 +27 жарко 1011.3 1002.3
06 14.08 штиль 0 20 км ясно +22.2 +13.3 57 +25 +25 комфорт 1011.9 1002.8
09 14.08 штиль 0 20 км зарница 1/1 1200 м
[Cb cap]
+21.6 +9.2 45 +23 +23 комфорт 1011.8 1002.7
12 14.08 штиль 0 20 км 8/8 900 м
[Cu Sc]
+21.2 +9.9 48 +23 +24 комфорт 1013.6 1004.5 +20.5
15 14.08 ЮВ 2 20 км 6/1 1000 м
[Cu hum Ac As]
+30.0 +11.2 31 +30 +38 жарко 1014.2 1005.3
18 14.08 Ю 8 20 км гроза без осадков 9/6 1000 м
[Cb cap Ac As]
+21.0 +15.7 72 +24 +24 комфорт 1015.7 1006.6
21 14.08 Ю 6 20 км 10/0 2000 м
[Ac As]
+20.6 +16.4 77 +24 +24 комфорт 1016.7 1007.6
00 15.08 ЮВ 3 20 км 9/0 2000 м
[Ac As]
+18.4 +16.3 88 +19 +19 1017.2 1007.9 +31.0
03 15.08 ЮВ 3 20 км 9/0 2000 м
[Ac As]
+17.8 +16.4 92 +18 +18 1017.6 1008.3
06 15.08 Ю 3 20 км 9/0 2000 м
[Ac As]
+16.8 +15.3 91 +17 +17 1018.2 1008.9
09 15.08 Ю 2 20 км 8/6 800 м
[Sc]
+17.4 +15.1 86 +18 +18 1019.2 1009.9
15 15.08 Ю 2 20 км 8/4 800 м
[Sc Ac As]
+18.6 +14.4 77 +20 +24 1020.8 1011.5
18 15.08 Ю 2 20 км 10/10 800 м
[Sc]
+18.2 +14.4 78 +19 +19 1020.4 1011.1
21 15.08 штиль 0 20 км 9/9 800 м
[Sc]
+18.2 +14.2 77 +18 +18 1021.4 1012.1
00 16.08 штиль 0 20 км 9/9 800 м
[Sc]
+16.2 +14.2 88 +16 +16 1021.6 1012.2 +18.6
03 16.08 ЮВ 3 20 км 9/0
[Ac As]
+17.8 +16.4 92 +18 +18 1017.6 1008.3
06 16.08 штиль 0 20 км 9/9 800 м
[Sc]
+14.6 +13.5 93 +14 +14 1022.0 1012.6
09 16.08 штиль 0 20 км ясно +13.0 +11.3 89 +12 +12 1020.5 1011.0
12 16.08 штиль 0 20 км 6/0
[Ac As]
+13.2 +12.6 96 +13 +15 1021.9 1012.5 +12.4
15 16.08 штиль 0 20 км ясно +23.6 +15.7 61 +27 +46 жарко 1022.3 1013.2
18 16.08 штиль 0 20 км ясно +28.4 +15.8 46 +31 +45 душно 1018.7 1009.8
21 16.08 СВ 1 15 км мгла ясно +30.0 +15.4 41 +33 +33 душно 1017.4 1008.5
00 17.08 штиль 0 20 км ясно +22.0 +15.6 67 +26 +26 душно 1020.0 1010.9 +31.0
06 17.08 штиль 0 20 км ясно +18.0 +16.2 89 +18 +18 1020.9 1011.6
09 17.08 штиль 0 20 км ясно +15.4 +14.5 94 +15 +15 1018.9 1009.5
15 17.08 ЮВ 2 20 км ясно +28.2 +16.4 49 +32 +46 душно 1021.3 1012.4
18 17.08 штиль 0 20 км ясно +31.8 +14.3 35 +34 +48 душно 1017.8 1009.0
21 17.08 штиль 0 20 км 3/3 1000 м
[Cu hum]
+32.2 +16.0 38 +35 +35 очень
душно
1015.2 1006.4

 

Местоположение метеостанции Puerto Casado (Парагвай): широта -22.28 долгота -57.86 высота над уровнем моря 87 м.

В архиве по умолчанию представлена погода в Puerto Casado за последнюю неделю. Архивные данные за месяц целиком и за предыдущие месяцы, начиная с января 2011 года, Вы можете получить, выбрав интересующий диапазон дат из раскрывающегося списка и нажав кнопку "Ввод!".


*Определитесь, кто Вы:
робот инопланетянин человек

Внимание! Время в таблицах - всемирное. Для получения местного времени необходимо прибавить поправку, которая в Puerto Casado равна -4 ч.

Смотрите также архив погоды в соседних городах и на ближайших метеорологических станциях:

Погода в Concepcion (Парагвай) (138 км)
Погода в Pozo Colorado (Парагвай) (162 км)
Погода в San Pedro (Парагвай) (213 км)
Погода в Pedro Juan Caballer (Парагвай) (222 км)
Погода в Ponta Pora (Бразилия) (224 км)
Погода в Ponta Pora (Бразилия) (241 км)
Погода в Miranda (Бразилия) (256 км)
Погода в Amambai (Бразилия) (272 км)
Погода в Mariscal Estigar (Парагвай) (284 км)
Погода в Maracaju (Бразилия) (286 км)

Пояснения к столбцам:

Ветер - указаны скорость ветра в м/с - средняя за 10 мин, порывы в срок и между сроками (в фигурных скобках) и направление, откуда дует ветер: С - северный, СВ - северо-восточный, В - восточный, ЮВ - юго-восточный, Ю - южный, ЮЗ - юго-западный, З - западный, СЗ - северо-западный.
Видимость - горизонтальная дальность видимости в метрах или километрах. При видимости от 1 до 10 км при отсутствии осадков обычно наблюдается дымка, при ухудшении видимости до 1 км и менее - туман. В сухую погоду видимость может ухудшаться дымом, пылью или мглою.
Явления - указаны атмосферные явления, наблюдавшиеся в срок или в последний час перед сроком; фигурными скобками обозначены явления, наблюдавшиеся между сроками (за 1-3 часа до срока); квадратными скобками обозначены град или гололедные отложения с указанием их диаметра в мм.
Облачность - указаны через наклонную черту общая и нижняя облачность в баллах и высота нижней границы облаков в метрах; квадратными скобками обозначены формы облаков: Ci - перистые, Cs - перисто-слоистые, Cc - перисто-кучевые, Ac - высококучевые, As - высокослоистые, Sc - слоисто-кучевые, Ns - слоисто-дождевые, Cu - кучевые, Cb - кучево-дождевые. Подробнее классификацию облаков см. в Атласе облаков (PDF).
T - Температура воздуха - температура, измеренная на высоте 2 м над землей.
Td - Температура точки росы - температура, при понижении до которой содержащийся в воздухе водяной пар достигнет насыщения.
f - Относительная влажность воздуха - влажноcть воздуха, измеренная на высоте 2 м над землей.
Te - Эффективная температура - температура, которую ощущает одетый по сезону человек в тени. Характеристика душности погоды. При расчете учитывается влияние влажности воздуха и скорости ветра на теплоощущения человека.
Tes - Эффективная температура на солнце - температура, которую ощущает человек, с поправкой на солнечный нагрев. Характеристика знойности погоды. Зависит от высоты солнца над горизонтом, облачности и скорости ветра. Ночью, в пасмурную погоду, а также при ветре 12 м/с и более поправка равна нулю.
P - Атмосферное давление - приведенное к уровню моря атмосферное давление.
Po - Атмосферное давление - измеренное на уровне метеостанции атмосферное давление.
Tmin - Минимальная температура - минимум температуры воздуха на высоте 2 м над землей.
Tmax - Максимальная температура - максимум температуры воздуха на высоте 2 м над землей.
R - Количество осадков - Количество выпавших осадков за период времени, мм. При наведении курсора мыши на число - период времени, за который выпало указанное количество осадков.
R24 - Количество осадков - Количество выпавших осадков за 24 часа, мм.
S - Снежный покров - Высота снежного покрова, см. При наведении курсора мыши на число - состояние снежного покрова и степень покрытия местности в баллах.